Date String (YYYY-MM-DD hh:mm:ss) UTC,Instrument flags,Ambient pressure (hPa),Sample flow (lpm),Bypass flow (lpm),Sample temperature (°C),Ambient temperature (°C),ASC tube jacket temperature (°C),LED temperature (°C),Box temperature (°C),Sample RH (%),Span deviation,Mass concentration (μg/m³),Mass concentration (μg/m³),Mass concentration (μg/m³)
DateTimeUTC,F1_M11,P_M11,Q1_M11,Q2_M11,T1_M11,T2_M11,T3_M11,T4_M11,T5_M11,U1_M11,ZSPAN_M11,X0_M11,X2_M11,X1_M11
2022-03-09 09:00:00,,0819.5,5.00,0.00,22.8,22.8,00.0,31.6,24.6,10.7,0000.0,0008.85,0004.56,0004.10
2022-03-09 09:01:00,,0819.6,5.00,0.00,22.7,22.5,00.0,31.6,24.5,10.7,0000.0,0008.71,0004.55,0004.11
2022-03-09 09:02:00,,0819.8,5.00,0.00,22.7,22.3,00.0,31.6,24.4,10.7,0000.0,0007.87,0004.54,0004.12
2022-03-09 09:03:00,,0819.8,5.02,0.00,22.7,22.0,00.0,31.6,24.3,10.8,0000.0,0007.49,0004.54,0004.14
2022-03-09 09:04:00,,0819.8,4.99,0.00,22.6,21.9,00.0,31.6,24.3,10.8,0000.0,0007.51,0004.59,0004.16
2022-03-09 09:05:00,,0819.7,5.00,0.00,22.6,21.8,00.0,31.6,24.2,10.8,0000.0,0007.56,0004.58,0004.16
2022-03-09 09:06:00,,0819.6,5.00,0.00,22.5,21.7,00.0,31.6,24.2,10.9,0000.0,0007.55,0004.57,0004.17
2022-03-09 09:07:00,,0819.4,5.00,0.00,22.5,21.6,00.0,31.6,24.1,10.9,0000.0,0007.63,0004.58,0004.17
2022-03-09 09:08:00,,0819.2,5.01,0.00,22.5,21.9,00.0,31.6,24.2,10.9,0000.0,0007.65,0004.58,0004.18
2022-03-09 09:09:00,,0819.4,4.99,0.00,22.6,22.7,00.0,31.6,24.4,10.8,0000.0,0007.50,0004.56,0004.20
2022-03-09 09:10:00,,0819.8,5.00,0.00,22.8,23.3,00.0,31.7,24.7,10.7,0000.0,0007.44,0004.58,0004.22
2022-03-09 09:11:00,,0819.8,5.01,0.00,22.8,23.3,00.0,31.7,24.8,10.7,0000.0,0007.30,0004.56,0004.22
2022-03-09 09:12:00,,0819.7,5.01,0.00,22.8,23.0,00.0,31.7,24.7,10.6,0000.0,0007.30,0004.57,0004.23
2022-03-09 09:13:00,,0819.3,5.00,0.00,22.8,22.7,00.0,31.7,24.6,10.6,0000.0,0007.35,0004.58,0004.24
2022-03-09 09:14:00,,0819.2,4.99,0.00,22.8,22.4,00.0,31.7,24.5,10.7,0000.0,0007.36,0004.58,0004.23
2022-03-09 09:15:00,,0819.3,5.00,0.00,22.7,22.2,00.0,31.7,24.4,10.7,0000.0,0006.97,0004.55,0004.23
2022-03-09 09:16:00,,0819.7,5.00,0.00,22.7,22.0,00.0,31.7,24.3,10.7,0000.0,0006.69,0004.55,0004.23
2022-03-09 09:17:00,,0819.8,5.00,0.00,22.6,21.9,00.0,31.7,24.2,10.7,0000.0,0006.65,0004.54,0004.23
2022-03-09 09:18:00,,0819.6,5.00,0.00,22.6,21.7,00.0,31.6,24.2,10.8,0000.0,0006.48,0004.52,0004.22
2022-03-09 09:19:00,,0819.3,5.01,0.00,22.5,21.7,00.0,31.6,24.2,10.8,0000.0,0006.46,0004.53,0004.23
2022-03-09 09:20:00,,0819.2,5.00,0.00,22.6,22.2,00.0,31.6,24.3,10.7,0000.0,0006.53,0004.52,0004.20
2022-03-09 09:21:00,,0819.4,5.01,0.00,22.7,22.9,00.0,31.7,24.5,10.7,0000.0,0006.42,0004.48,0004.19
2022-03-09 09:22:00,,0819.7,4.99,0.00,22.8,23.4,00.0,31.7,24.8,10.6,0000.0,0006.39,0004.47,0004.18
2022-03-09 09:23:00,,0819.7,5.00,0.00,22.9,23.2,00.0,31.7,24.8,10.6,0000.0,0006.53,0004.48,0004.16
2022-03-09 09:24:00,,0819.6,5.00,0.00,22.9,23.0,00.0,31.7,24.8,10.6,0000.0,0006.49,0004.47,0004.14
2022-03-09 09:25:00,,0819.5,5.01,0.00,22.9,22.6,00.0,31.7,24.6,10.6,0000.0,0006.44,0004.45,0004.13
2022-03-09 09:26:00,,0819.7,4.99,0.00,22.8,22.2,00.0,31.7,24.5,10.6,0000.0,0006.38,0004.43,0004.12
2022-03-09 09:27:00,,0819.8,5.00,0.00,22.8,22.1,00.0,31.7,24.5,10.6,0000.0,0006.35,0004.42,0004.10
2022-03-09 09:28:00,,0819.6,5.00,0.00,22.7,21.9,00.0,31.7,24.4,10.7,0000.0,0006.28,0004.40,0004.09
2022-03-09 09:29:00,,0819.4,4.99,0.00,22.7,21.7,00.0,31.7,24.3,10.7,0000.0,0006.23,0004.38,0004.08
2022-03-09 09:30:00,,0819.4,5.02,0.00,22.6,21.6,00.0,31.7,24.3,10.7,0000.0,0006.15,0004.36,0004.06
2022-03-09 09:31:00,,0819.4,4.99,0.00,22.6,21.5,00.0,31.7,24.2,10.8,0000.0,0006.22,0004.37,0004.06
2022-03-09 09:32:00,,0819.5,5.00,0.00,22.5,21.5,00.0,31.6,24.1,10.8,0000.0,0006.30,0004.38,0004.06
2022-03-09 09:33:00,,0819.6,5.00,0.00,22.5,21.8,00.0,31.6,24.1,10.8,0000.0,0006.39,0004.39,0004.06
2022-03-09 09:34:00,,0819.5,5.00,0.00,22.6,22.6,00.0,31.7,24.4,10.8,0000.0,0006.35,0004.36,0004.06
2022-03-09 09:35:00,,0819.5,4.99,0.00,22.7,23.3,00.0,31.7,24.6,10.7,0000.0,0006.86,0004.33,0004.07
2022-03-09 09:36:00,,0819.5,5.00,0.00,22.8,23.2,00.0,31.7,24.7,10.7,0000.0,0007.49,0004.32,0004.07
2022-03-09 09:37:00,,0819.5,4.99,0.00,22.8,22.9,00.0,31.7,24.7,10.7,0000.0,0007.56,0004.33,0004.06
2022-03-09 09:38:00,,0819.5,5.01,0.00,22.8,22.6,00.0,31.7,24.5,10.6,0000.0,0007.64,0004.34,0004.06
2022-03-09 09:39:00,,0819.5,5.01,0.00,22.7,22.3,00.0,31.7,24.4,10.6,0000.0,0007.63,0004.32,0004.05
2022-03-09 09:40:00,,0819.5,4.99,0.00,22.7,22.1,00.0,31.7,24.3,10.6,0000.0,0007.68,0004.33,0004.04
2022-03-09 09:41:00,,0819.5,4.99,0.00,22.6,21.9,00.0,31.7,24.3,10.6,0000.0,0007.72,0004.32,0004.02
2022-03-09 09:42:00,,0819.5,5.01,0.00,22.6,21.7,00.0,31.7,24.2,10.6,0000.0,0007.67,0004.29,0004.01
2022-03-09 09:43:00,,0819.4,4.99,0.00,22.6,21.9,00.0,31.6,24.2,10.7,0000.0,0007.56,0004.25,0004.00
2022-03-09 09:44:00,,0819.4,5.00,0.00,22.7,22.6,00.0,31.7,24.4,10.6,0000.0,0007.48,0004.21,0003.97
2022-03-09 09:45:00,,0819.6,5.01,0.00,22.8,23.4,00.0,31.7,24.7,10.5,0000.0,0007.48,0004.20,0003.94
2022-03-09 09:46:00,,0819.8,4.98,0.00,22.9,23.4,00.0,31.7,24.8,10.4,0000.0,0007.11,0004.21,0003.93
2022-03-09 09:47:00,,0819.8,5.00,0.00,22.9,23.0,00.0,31.7,24.8,10.4,0000.0,0006.26,0004.20,0003.91
2022-03-09 09:48:00,,0819.4,5.00,0.00,22.9,22.7,00.0,31.8,24.7,10.3,0000.0,0006.17,0004.17,0003.89
2022-03-09 09:49:00,,0819.3,5.01,0.00,22.8,22.5,00.0,31.8,24.5,10.3,0000.0,0006.06,0004.15,0003.87
2022-03-09 09:50:00,,0819.4,4.98,0.00,22.8,22.3,00.0,31.7,24.4,10.3,0000.0,0006.13,0004.15,0003.85
2022-03-09 09:51:00,,0819.7,5.02,0.00,22.7,22.1,00.0,31.7,24.3,10.3,0000.0,0006.08,0004.13,0003.83
2022-03-09 09:52:00,,0819.7,4.99,0.00,22.7,21.9,00.0,31.7,24.3,10.3,0000.0,0005.99,0004.09,0003.81
2022-03-09 09:53:00,,0819.5,5.01,0.00,22.6,21.7,00.0,31.7,24.2,10.4,0000.0,0006.24,0004.07,0003.78
2022-03-09 09:54:00,,0819.2,5.01,0.00,22.6,21.6,00.0,31.7,24.2,10.3,0000.0,0006.36,0004.08,0003.77
2022-03-09 09:55:00,,0819.2,4.99,0.00,22.6,21.9,00.0,31.7,24.2,10.3,0000.0,0006.53,0004.11,0003.77
2022-03-09 09:56:00,,0819.5,5.00,0.00,22.7,22.8,00.0,31.7,24.5,10.2,0000.0,0006.56,0004.10,0003.76
2022-03-09 09:57:00,,0819.7,4.99,0.00,22.8,23.5,00.0,31.8,24.7,10.2,0000.0,0006.44,0004.07,0003.74
2022-03-09 09:58:00,,0819.8,5.00,0.00,22.9,23.3,00.0,31.8,24.8,10.1,0000.0,0006.40,0004.05,0003.72
2022-03-09 09:59:00,,0819.7,5.00,0.00,22.9,22.9,00.0,31.8,24.7,10.1,0000.0,0006.96,0004.02,0003.70
